This demonstration page uses our WeatherBlox Daily Observations layout. Learn more.

Left ArrowRight Arrow

Hourly Observations for August 7, 2020

Temp ( °F °C ) Dew Point ( °F °C ) Humidity (%) Winds ( mph kmh ) Pressure ( in mb ) Visibility ( mi km ) Precip ( " mm )
12:53 am 00:53 Clear 73 22.8 69 20.6 87 87 S 7 11 29.91 1013 9 14 0.00 0.00
1:53 am 01:53 Clear 71 21.7 68 20 90 90 S 7 11 29.90 1013 8 13 0.00 0.00
2:53 am 02:53 Clear 70 21.1 68 20 93 93 S 6 9 29.90 1012 7 11 0.00 0.00
3:53 am 03:53 Mostly Cloudy 70 21.1 68 20 93 93 SSE 8 13 29.87 1012 8 13 0.00 0.00
4:21 am 04:21 Partly Cloudy 70 21.1 68 20 93 93 SSE 7 11 29.85 1011 7 11 0.00 0.00
4:44 am 04:44 Mostly Cloudy with Mist and Fog 70 21.1 68 20 93 93 SSE 7 11 29.85 1011 6 10 0.00 0.00
4:53 am 04:53 Mostly Cloudy 70 21.1 68 20 93 93 SSE 6 9 29.86 1011 7 11 0.00 0.00
5:21 am 05:21 Cloudy with Mist and Fog 70 21.1 68 20 93 93 SE 7 11 29.85 1011 6 10 0.00 0.00
5:40 am 05:40 Cloudy with Mist and Fog 72 22 68 20 88 88 SE 8 13 29.84 1011 6 10 0.00 0.00
5:53 am 05:53 Cloudy with Mist and Fog 71 21.7 69 20.6 94 94 SE 10 17 29.85 1011 6 10 0.00 0.00
6:27 am 06:27 Cloudy with Mist and Fog 71 21.7 69 20.6 94 94 SSE 9 15 29.85 1011 5 8 0.00 0.00
6:53 am 06:53 Cloudy with Mist and Fog 71 21.7 69 20.6 94 94 S 9 15 29.87 1012 4 6 0.00 0.00
7:53 am 07:53 Cloudy with Mist and Fog 72 22.2 69 20.6 91 91 SSE 9 15 29.87 1012 5 8 0.00 0.00
8:53 am 08:53 Cloudy with Mist and Fog 73 22.8 70 21.1 90 90 SSE 13 20 29.87 1011 6 10 0.00 0.00
9:53 am 09:53 Cloudy 75 23.9 70 21.1 84 84 SSE 9 15 29.88 1012 10 16 0.00 0.00
10:17 am 10:17 Cloudy 76 24.4 70 21.1 82 82 S 9 15 29.84 1010 10 16 0.00 0.00
10:53 am 10:53 Cloudy 77 25 70 21.1 79 79 S 9 15 29.88 1012 10 16 0.00 0.00
11:08 am 11:08 Cloudy 77 25 70 21.1 79 79 S 8 13 29.84 1011 10 16 0.00 0.00
11:53 am 11:53 Cloudy 76 24.4 70 21.1 82 82 S 8 13 29.88 1012 10 16 0.00 0.00
12:53 pm 12:53 Cloudy 78 25.6 70 21.1 76 76 S 10 17 29.89 1012 10 16 0.00 0.00
1:53 pm 13:53 Mostly Cloudy 81 27.2 70 21.1 69 69 SSE 13 20 29.86 1011 10 16 0.00 0.00
2:53 pm 14:53 Partly Cloudy 84 28.9 72 22.2 67 67 SSE 14 22 29.85 1011 10 16 0.00 0.00
3:18 pm 15:18 Mostly Cloudy 85 29.4 72 22.2 65 65 SSE 14 22 29.77 1008 10 16 0.00 0.00
3:29 pm 15:29 Partly Cloudy 85 29.4 72 22.2 65 65 SSE 14 22 29.77 1008 10 16 0.00 0.00
3:53 pm 15:53 Partly Cloudy 86 30 71 21.7 61 61 SSE 15 24 29.84 1010 10 16 0.00 0.00
4:53 pm 16:53 Partly Cloudy 87 30.6 72 22.2 61 61 SSE 13 20 29.83 1010 10 16 0.00 0.00
5:53 pm 17:53 Mostly Sunny 87 30.6 72 22.2 61 61 SSE 13 20 29.82 1010 10 16 0.00 0.00
6:53 pm 18:53 Sunny 87 30.6 73 22.8 63 63 SSE 10 17 29.81 1010 10 16 0.00 0.00
7:53 pm 19:53 Sunny 85 29.4 73 22.8 68 68 SSE 13 20 29.82 1010 10 16 0.00 0.00
8:53 pm 20:53 Clear 82 27.8 73 22.8 74 74 SE 9 15 29.82 1010 10 16 0.00 0.00
9:53 pm 21:53 Clear 80 26.7 73 22.8 79 79 SSE 9 15 29.84 1010 10 16 0.00 0.00
10:53 pm 22:53 Clear 78 25.6 73 22.8 85 85 SSE 10 17 29.84 1010 10 16 0.00 0.00
11:53 pm 23:53 Clear 77 25 73 22.8 88 88 SSE 13 20 29.83 1010 10 16 0.00 0.00

Powered by AerisWeather